YO2LC Weather Reports


time (UTC)temp
F
wind
direction
speed
knots
gust
knots
rain 1hr
in
rain 24hr
in
rain mn
in
humidity
%
barometer
mb
20260906023511 61 171 0.0 0.0 0.00 0.00 0.00 74 1022.9
20260906023008 61 170 0.0 0.0 0.00 0.00 0.00 73 1023.0
20260906022508 61 170 0.0 0.0 0.00 0.00 0.00 73 1022.9
20260906022007 61 186 0.0 0.0 0.00 0.00 0.00 73 1022.9
20260906021507 61 218 0.0 0.0 0.00 0.00 0.00 73 1022.9
20260906021006 61 187 0.0 0.0 0.00 0.00 0.00 73 1022.9
20260906020504 61 161 0.0 0.0 0.00 0.00 0.00 73 1022.8
20260906020004 61 162 0.0 0.0 0.00 0.00 0.00 72 1022.6
20260906015502 62 154 0.0 0.0 0.00 0.00 0.00 71 1022.6
20260906015100 62 154 0.0 0.0 0.00 0.00 0.00 71 1022.5
20260906014559 62 153 0.0 0.0 0.00 0.00 0.00 70 1022.4
20260906014100 62 153 0.0 0.0 0.00 0.00 0.00 70 1022.3
20260906013557 62 153 0.0 0.0 0.00 0.00 0.00 70 1022.4
20260906013056 63 150 0.0 0.0 0.00 0.00 0.00 69 1022.5
20260906012554 63 150 0.0 0.0 0.00 0.00 0.00 68 1022.6
20260906012052 63 153 0.0 0.0 0.00 0.00 0.00 67 1022.7
20260906011551 64 181 0.0 0.0 0.00 0.00 0.00 66 1022.7
20260906011048 64 181 0.0 0.0 0.00 0.00 0.00 66 1022.6
20260906010547 64 194 0.0 0.0 0.00 0.00 0.00 65 1022.6
20260906010103 64 206 0.0 0.0 0.00 0.00 0.00 65 1022.5
20260906005543 64 235 0.0 0.0 0.00 0.00 0.00 64 1022.3
20260906005044 64 185 0.0 0.0 0.00 0.00 0.00 64 1022.4
20260906004552 64 178 0.0 0.0 0.00 0.00 0.00 63 1022.4
20260906004038 65 178 0.0 0.0 0.00 0.00 0.00 62 1022.2
20260906003537 66 178 0.0 0.0 0.00 0.00 0.00 61 1022.2
20260906003035 66 178 0.0 0.0 0.00 0.00 0.00 60 1022.2
20260906002534 67 178 0.0 0.0 0.00 0.00 0.00 59 1022.1
20260906002031 67 173 0.0 0.0 0.00 0.00 0.00 58 1022.0
20260906001545 67 213 0.0 0.0 0.00 0.00 0.00 58 1022.0
20260906001028 68 205 0.0 0.0 0.00 0.00 0.00 57 1022.0
20260906000527 68 217 0.0 0.0 0.00 0.00 0.00 57 1021.9
20260906000025 69 220 0.0 0.0 0.00 0.00 0.00 56 1022.0
20260905235524 69 194 0.0 0.0 0.00 0.00 0.00 55 1022.0
20260905235021 69 194 0.0 0.0 0.00 0.00 0.00 54 1022.0
20260905234520 69 231 0.0 0.0 0.00 0.00 0.00 53 1021.8
20260905234018 69 231 0.0 0.0 0.00 0.00 0.00 53 1021.7
20260905233517 70 251 0.0 0.0 0.00 0.00 0.00 53 1021.8
20260905233018 70 171 0.0 0.0 0.00 0.00 0.00 52 1021.6
20260905232518 70 164 0.0 0.0 0.00 0.00 0.00 52 1021.5
20260905232013 70 235 0.0 0.0 0.00 0.00 0.00 51 1021.6
20260905231516 70 241 0.0 0.0 0.00 0.00 0.00 51 1021.4
20260905231014 70 230 0.0 0.0 0.00 0.00 0.00 50 1021.4
20260905230511 70 219 0.0 0.0 0.00 0.00 0.00 50 1021.4
20260905230009 70 231 0.0 0.0 0.00 0.00 0.00 50 1021.5
20260905225510 70 218 0.0 0.0 0.00 0.00 0.00 49 1021.6
20260905225007 70 212 0.0 0.0 0.00 0.00 0.00 48 1021.4
20260905224507 70 236 0.0 0.0 0.00 0.00 0.00 47 1021.2
20260905224006 70 152 0.0 0.0 0.00 0.00 0.00 46 1021.2
20260905223504 71 179 0.0 0.0 0.00 0.00 0.00 46 1021.0
20260905223005 71 190 0.0 0.0 0.00 0.00 0.00 45 1020.8
20260905222503 71 179 0.0 0.0 0.00 0.00 0.00 45 1020.7
20260905222100 71 173 0.0 0.0 0.00 0.00 0.00 44 1020.8
20260905221602 71 180 0.0 0.0 0.00 0.00 0.00 43 1020.9
20260905221058 72 121 0.0 0.0 0.00 0.00 0.00 43 1020.7
20260905220600 72 193 0.0 0.0 0.00 0.00 0.00 43 1020.8
20260905220058 71 304 0.0 0.0 0.00 0.00 0.00 43 1020.7
20260905215554 71 144 0.0 0.0 0.00 0.00 0.00 44 1020.5
20260905215057 71 144 0.0 0.0 0.00 0.00 0.00 46 1020.4
20260905214552 71 126 0.0 0.0 0.00 0.00 0.00 46 1020.3
20260905214052 71 126 0.0 0.0 0.00 0.00 0.00 45 1020.4
20260905213550 70 129 0.0 0.0 0.00 0.00 0.00 45 1020.3
20260905213050 71 121 0.0 0.0 0.00 0.00 0.00 46 1020.2
20260905212547 72 121 0.0 0.0 0.00 0.00 0.00 45 1020.4
20260905212044 73 174 0.0 0.0 0.00 0.00 0.00 44 1020.4
20260905211546 73 180 0.0 0.0 0.00 0.00 0.00 42 1020.3
20260905211042 74 218 0.0 0.0 0.00 0.00 0.00 42 1020.2
20260905210540 74 232 0.0 0.0 0.00 0.00 0.00 42 1020.4
20260905210050 74 232 0.0 0.0 0.00 0.00 0.00 42 1020.3
20260905205538 75 254 0.0 0.0 0.00 0.00 0.00 42 1020.2
20260905205036 75 282 0.0 0.0 0.00 0.00 0.00 42 1020.2
20260905204535 75 255 0.0 0.0 0.00 0.00 0.00 43 1020.2
20260905204034 75 85 0.0 0.0 0.00 0.00 0.00 43 1020.1
20260905203533 75 254 0.0 0.0 0.00 0.00 0.00 43 1020.1
20260905203032 76 49 0.0 0.0 0.00 0.00 0.00 44 1020.1
20260905202530 76 88 0.0 0.0 0.00 0.00 0.00 46 1020.1
20260905202029 76 45 0.0 0.0 0.00 0.00 0.00 47 1020.0
20260905201530 76 253 0.0 0.0 0.00 0.00 0.00 49 1019.9
20260905201029 76 276 0.0 0.0 0.00 0.00 0.00 49 1019.9
20260905200527 76 288 0.0 0.0 0.00 0.00 0.00 49 1019.8
20260905200034 77 43 0.0 0.0 0.00 0.00 0.00 49 1019.8
20260905195526 77 319 0.0 0.0 0.00 0.00 0.00 49 1019.7
20260905195024 77 271 0.0 0.0 0.00 0.00 0.00 49 1019.7
20260905194523 77 240 0.0 0.0 0.00 0.00 0.00 48 1019.6
20260905194023 78 281 0.0 0.0 0.00 0.00 0.00 48 1019.5
20260905193521 78 237 0.0 0.0 0.00 0.00 0.00 47 1019.2
20260905193021 78 272 0.0 0.0 0.00 0.00 0.00 47 1019.2
20260905192519 79 281 0.0 0.0 0.00 0.00 0.00 46 1019.0
20260905192018 79 263 0.0 0.0 0.00 0.00 0.00 46 1018.8
20260905191519 79 254 0.0 0.0 0.00 0.00 0.00 46 1018.7
20260905191017 79 263 0.0 0.0 0.00 0.00 0.00 46 1018.7
20260905190514 80 284 0.0 0.0 0.00 0.00 0.00 46 1018.7
20260905190014 80 243 0.0 0.0 0.00 0.00 0.00 45 1018.6
20260905185512 80 238 0.0 0.0 0.00 0.00 0.00 45 1018.5
20260905185011 80 285 0.0 0.0 0.00 0.00 0.00 45 1018.3
20260905184517 80 254 0.0 0.0 0.00 0.00 0.00 45 1018.3
20260905184009 81 209 0.0 0.0 0.00 0.00 0.00 45 1018.2
20260905183611 81 280 0.0 0.0 0.00 0.00 0.00 45 1018.3
20260905183007 81 191 0.0 0.0 0.00 0.00 0.00 44 1018.2
20260905182507 81 244 0.0 0.0 0.00 0.00 0.00 44 1018.2
20260905182006 82 49 0.0 0.0 0.00 0.00 0.00 44 1018.2
20260905181504 82 209 0.0 0.0 0.00 0.00 0.00 44 1018.1
20260905181004 82 39 0.0 0.0 0.00 0.00 0.00 44 1018.0
20260905180505 82 35 0.0 0.0 0.00 0.00 0.00 44 1017.9
20260905180008 82 62 0.0 0.0 0.00 0.00 0.00 44 1017.8
20260905175503 82 33 0.0 0.0 0.00 0.00 0.00 44 1017.7
20260905175004 82 360 0.0 0.0 0.00 0.00 0.00 43 1017.7
20260905174502 83 74 0.0 0.0 0.00 0.00 0.00 43 1017.6
20260905174003 83 192 0.0 0.0 0.00 0.00 0.00 43 1017.5
20260905173502 83 12 0.0 0.0 0.00 0.00 0.00 43 1017.4
20260905173001 83 296 0.0 0.0 0.00 0.00 0.00 43 1017.3
20260905172600 83 40 0.0 0.0 0.00 0.00 0.00 43 1017.3
20260905172059 84 107 0.0 0.0 0.00 0.00 0.00 43 1017.1
20260905171559 84 148 0.0 0.0 0.00 0.00 0.00 43 1017.1
20260905171158 84 139 0.0 0.0 0.00 0.00 0.00 43 1017.0
20260905170557 84 49 0.0 0.0 0.00 0.00 0.00 43 1016.9
20260905170057 85 336 0.0 0.0 0.00 0.00 0.00 43 1016.7
20260905165556 85 57 0.0 0.0 0.00 0.00 0.00 43 1016.8
20260905165055 85 64 0.0 0.0 0.00 0.00 0.00 44 1016.6
20260905164555 85 30 0.0 0.0 0.00 0.00 0.00 45 1016.5
20260905164055 86 220 0.0 0.0 0.00 0.00 0.00 44 1016.5
20260905163556 86 21 0.0 0.0 0.00 0.00 0.00 45 1016.5
20260905163052 86 334 0.0 0.0 0.00 0.00 0.00 45 1016.5
20260905162551 87 219 0.0 0.0 0.00 0.00 0.00 45 1016.5
20260905162050 87 357 0.0 0.0 0.00 0.00 0.00 46 1016.5
20260905161550 87 280 0.0 0.0 0.00 0.00 0.00 46 1016.3
20260905161050 87 142 0.0 0.0 0.00 0.00 0.00 46 1016.2
20260905160549 88 124 0.0 0.0 0.00 0.00 0.00 46 1016.0
20260905160050 89 100 0.0 0.0 0.00 0.00 0.00 45 1015.8
20260905155547 89 66 0.0 0.0 0.00 0.00 0.00 45 1015.7
20260905155047 89 206 0.0 0.0 0.00 0.00 0.00 44 1015.7
20260905154546 91 36 0.0 0.0 0.00 0.00 0.00 43 1015.6
20260905154048 92 175 0.0 0.0 0.00 0.00 0.00 42 1015.5
20260905153548 92 8 0.0 0.0 0.00 0.00 0.00 40 1015.3
20260905153044 94 225 0.0 0.0 0.00 0.00 0.00 38 1015.1
20260905152543 94 291 0.0 0.0 0.00 0.00 0.00 35 1014.9
20260905152042 94 252 0.0 0.0 0.00 0.00 0.00 34 1014.9
20260905151546 95 274 0.0 0.0 0.00 0.00 0.00 33 1014.9
20260905151041 95 20 0.0 0.0 0.00 0.00 0.00 32 1014.9
20260905150542 95 240 0.0 0.0 0.00 0.00 0.00 32 1014.9
20260905150039 95 258 0.0 0.0 0.00 0.00 0.00 32 1015.0
20260905145539 95 233 0.0 0.0 0.00 0.00 0.00 32 1014.9
20260905145037 96 266 0.0 0.0 0.00 0.00 0.00 32 1015.0
20260905144544 96 245 0.0 0.0 0.00 0.00 0.00 32 1014.9
20260905144038 96 187 0.0 0.0 0.00 0.00 0.00 31 1014.9
20260905143534 96 259 0.0 0.0 0.00 0.00 0.00 32 1014.8
20260905143036 96 203 0.0 0.0 0.00 0.00 0.00 31 1014.8
20260905142535 96 226 0.0 0.0 0.00 0.00 0.00 31 1014.8
20260905142032 97 244 0.0 0.0 0.00 0.00 0.00 31 1014.9
20260905141631 96 176 0.0 0.0 0.00 0.00 0.00 31 1014.8
20260905141033 96 224 0.0 0.0 0.00 0.00 0.00 32 1014.7
20260905140527 97 175 0.0 0.0 0.00 0.00 0.00 31 1014.7
20260905140025 96 202 0.0 0.0 0.00 0.00 0.00 32 1014.8
20260905135525 97 244 0.0 0.0 0.00 0.00 0.00 31 1014.8
20260905135022 96 214 0.0 0.0 0.00 0.00 0.00 32 1014.8
20260905134527 96 216 0.0 0.0 0.00 0.00 0.00 32 1014.8
20260905134019 96 247 0.0 0.0 0.00 0.00 0.00 32 1014.8
20260905133516 96 260 0.0 0.0 0.00 0.00 0.00 32 1014.8
20260905133015 96 232 0.0 0.0 0.00 0.00 0.00 32 1014.8
20260905132513 96 282 0.0 0.0 0.00 0.00 0.00 31 1014.8
20260905132014 96 171 0.0 0.0 0.00 0.00 0.00 31 1014.7
20260905131509 96 211 0.0 0.0 0.00 0.00 0.00 32 1014.8
20260905131006 96 244 0.0 0.0 0.00 0.00 0.00 32 1014.9
20260905130503 96 235 0.0 0.0 0.00 0.00 0.00 32 1015.0
20260905130004 96 284 0.0 0.0 0.00 0.00 0.00 32 1015.1
20260905125501 96 268 0.0 0.0 0.00 0.00 0.00 32 1015.1
20260905125101 96 217 0.0 0.0 0.00 0.00 0.00 32 1015.1
20260905124558 96 168 0.0 0.0 0.00 0.00 0.00 32 1015.2
20260905124055 96 192 0.0 0.0 0.00 0.00 0.00 32 1015.2
20260905123553 95 346 0.0 0.0 0.00 0.00 0.00 32 1015.1
20260905123107 95 244 0.0 0.0 0.00 0.00 0.00 32 1015.3
20260905122554 95 228 0.0 0.0 0.00 0.00 0.00 32 1015.5
20260905122052 96 187 0.0 0.0 0.00 0.00 0.00 32 1015.6
20260905121547 95 181 0.0 0.0 0.00 0.00 0.00 32 1015.6
20260905121046 95 253 0.0 0.0 0.00 0.00 0.00 32 1015.7
20260905120546 95 292 0.0 0.0 0.00 0.00 0.00 32 1015.8
20260905120042 95 230 0.0 0.0 0.00 0.00 0.00 32 1015.9
20260905115541 95 237 0.0 0.0 0.00 0.00 0.00 32 1015.9
20260905115041 95 180 0.0 0.0 0.00 0.00 0.00 32 1016.1
20260905114542 95 218 0.0 0.0 0.00 0.00 0.00 32 1016.1
20260905114035 95 230 0.0 0.0 0.00 0.00 0.00 33 1016.2
20260905113535 95 186 0.0 0.0 0.00 0.00 0.00 33 1016.4
20260905113034 95 202 0.0 0.0 0.00 0.00 0.00 33 1016.2
20260905112531 95 186 0.0 0.0 0.00 0.00 0.00 32 1016.3
20260905112032 95 289 0.0 0.0 0.00 0.00 0.00 33 1016.3
20260905111528 94 163 0.0 0.0 0.00 0.00 0.00 33 1016.3
20260905111026 94 265 0.0 0.0 0.00 0.00 0.00 32 1016.3
20260905110528 94 256 0.0 0.0 0.00 0.00 0.00 32 1016.4
20260905110022 94 185 0.0 0.0 0.00 0.00 0.00 33 1016.4
20260905105521 94 219 0.0 0.0 0.00 0.00 0.00 33 1016.6
20260905105017 94 217 0.0 0.0 0.00 0.00 0.00 33 1016.5
20260905104515 94 284 0.0 0.0 0.00 0.00 0.00 34 1016.6
20260905104014 93 222 0.0 0.0 0.00 0.00 0.00 33 1016.7
20260905103514 93 249 0.0 0.0 0.00 0.00 0.00 33 1016.6
20260905103013 93 218 0.0 0.0 0.00 0.00 0.00 34 1016.6
20260905102512 93 245 0.0 0.0 0.00 0.00 0.00 35 1016.7
20260905102011 93 195 0.0 0.0 0.00 0.00 0.00 33 1016.7
20260905101510 93 171 0.0 0.0 0.00 0.00 0.00 33 1016.7
20260905101008 93 218 0.0 0.0 0.00 0.00 0.00 33 1016.7
20260905100508 93 232 0.0 0.0 0.00 0.00 0.00 33 1016.7
20260905100111 93 263 0.0 0.0 0.00 0.00 0.00 35 1016.6
20260905095507 93 282 0.0 0.0 0.00 0.00 0.00 34 1016.5
20260905095003 93 197 0.0 0.0 0.00 0.00 0.00 34 1016.7
20260905094503 93 36 0.0 0.0 0.00 0.00 0.00 36 1016.7
20260905094059 92 182 0.0 0.0 0.00 0.00 0.00 37 1016.7
20260905093559 92 100 0.0 0.0 0.00 0.00 0.00 36 1016.7
20260905093101 92 259 0.0 0.0 0.00 0.00 0.00 36 1016.7
20260905092557 92 71 0.0 0.0 0.00 0.00 0.00 36 1016.7
20260905092054 91 208 0.0 0.0 0.00 0.00 0.00 37 1016.6
20260905091555 91 250 0.0 0.0 0.00 0.00 0.00 37 1016.7
20260905091051 90 56 0.0 0.0 0.00 0.00 0.00 37 1016.7
20260905090550 90 144 0.0 0.0 0.00 0.00 0.00 37 1016.8
20260905090049 90 287 0.0 0.0 0.00 0.00 0.00 37 1016.9
20260905085550 90 201 0.0 0.0 0.00 0.00 0.00 38 1017.0
20260905085046 90 273 0.0 0.0 0.00 0.00 0.00 38 1017.0
20260905084553 90 237 0.0 0.0 0.00 0.00 0.00 38 1017.0
20260905084042 90 176 0.0 0.0 0.00 0.00 0.00 38 1017.1
20260905083544 90 215 0.0 0.0 0.00 0.00 0.00 38 1017.1
20260905083039 90 182 0.0 0.0 0.00 0.00 0.00 39 1016.9
20260905082538 89 119 0.0 0.0 0.00 0.00 0.00 39 1016.9
20260905082036 89 94 0.0 0.0 0.00 0.00 0.00 39 1016.8
20260905081535 88 158 0.0 0.0 0.00 0.00 0.00 40 1016.9
20260905081033 88 140 0.0 0.0 0.00 0.00 0.00 40 1016.8
20260905080531 87 156 0.0 0.0 0.00 0.00 0.00 41 1016.9
20260905080053 87 212 0.0 0.0 0.00 0.00 0.00 41 1016.9
20260905075529 87 114 0.0 0.0 0.00 0.00 0.00 41 1016.8
20260905075026 86 69 0.0 0.0 0.00 0.00 0.00 43 1016.8
20260905074528 86 98 0.0 0.0 0.00 0.00 0.00 42 1016.9
20260905074022 85 133 0.0 0.0 0.00 0.00 0.00 43 1016.9
20260905073521 85 204 0.0 0.0 0.00 0.00 0.00 44 1016.9
20260905073025 85 151 0.0 0.0 0.00 0.00 0.00 43 1016.8
20260905072520 84 126 0.0 0.0 0.00 0.00 0.00 44 1017.0
20260905072018 84 213 0.0 0.0 0.00 0.00 0.00 44 1017.0
20260905071518 84 180 0.0 0.0 0.00 0.00 0.00 45 1017.0
20260905071012 84 186 0.0 0.0 0.00 0.00 0.00 45 1016.9
20260905070509 83 181 0.0 0.0 0.00 0.00 0.00 45 1016.9
20260905070008 83 137 0.0 0.0 0.00 0.00 0.00 45 1016.9
20260905065508 83 171 0.0 0.0 0.00 0.00 0.00 46 1016.9
20260905065003 82 247 0.0 0.0 0.00 0.00 0.00 47 1016.8
20260905064501 82 218 0.0 0.0 0.00 0.00 0.00 47 1016.7
20260905064101 82 183 0.0 0.0 0.00 0.00 0.00 48 1016.7
20260905063658 81 205 0.0 0.0 0.00 0.00 0.00 49 1016.7
20260905063056 80 183 0.0 0.0 0.00 0.00 0.00 50 1016.7
20260905062554 80 225 0.0 0.0 0.00 0.00 0.00 52 1016.8
20260905062053 78 20 0.0 0.0 0.00 0.00 0.00 56 1016.8
20260905061557 77 230 0.0 0.0 0.00 0.00 0.00 61 1016.8
20260905061049 75 186 0.0 0.0 0.00 0.00 0.00 63 1016.8
20260905060547 74 14 0.0 0.0 0.00 0.00 0.00 65 1016.9
20260905060056 74 121 0.0 0.0 0.00 0.00 0.00 66 1016.9
20260905055548 73 20 0.0 0.0 0.00 0.00 0.00 66 1017.1
20260905055043 72 36 0.0 0.0 0.00 0.00 0.00 66 1017.0
20260905054551 71 250 0.0 0.0 0.00 0.00 0.00 66 1017.0
20260905054040 70 225 0.0 0.0 0.00 0.00 0.00 68 1017.1
20260905053542 69 253 0.0 0.0 0.00 0.00 0.00 68 1017.0
20260905053037 69 276 0.0 0.0 0.00 0.00 0.00 68 1016.9
20260905052538 68 273 0.0 0.0 0.00 0.00 0.00 69 1016.9
20260905052034 67 251 0.0 0.0 0.00 0.00 0.00 70 1017.0
20260905051545 67 93 0.0 0.0 0.00 0.00 0.00 72 1016.8
20260905051031 66 153 0.0 0.0 0.00 0.00 0.00 72 1016.9
20260905050531 65 153 0.0 0.0 0.00 0.00 0.00 73 1016.8
20260905050031 64 102 0.0 0.0 0.00 0.00 0.00 74 1016.8
20260905045530 63 102 0.0 0.0 0.00 0.00 0.00 76 1016.8
20260905045032 62 104 0.0 0.0 0.00 0.00 0.00 76 1016.8
20260905044537 62 104 0.0 0.0 0.00 0.00 0.00 76 1016.7
20260905044028 62 104 0.0 0.0 0.00 0.00 0.00 76 1016.7
20260905043528 61 104 0.0 0.0 0.00 0.00 0.00 76 1016.7
20260905043029 61 103 0.0 0.0 0.00 0.00 0.00 77 1016.6
20260905042528 61 223 0.0 0.0 0.00 0.00 0.00 77 1016.5
20260905042028 61 225 0.0 0.0 0.00 0.00 0.00 77 1016.6
20260905041528 61 225 0.0 0.0 0.00 0.00 0.00 77 1016.6
20260905041027 61 93 0.0 0.0 0.00 0.00 0.00 77 1016.6
20260905040530 61 110 0.0 0.0 0.00 0.00 0.00 77 1016.7
20260905040035 61 266 0.0 0.0 0.00 0.00 0.00 77 1016.7
20260905035527 61 135 0.0 0.0 0.00 0.00 0.00 77 1016.8
20260905035028 60 135 0.0 0.0 0.00 0.00 0.00 77 1016.8
20260905034525 60 192 0.0 0.0 0.00 0.00 0.00 78 1016.8
20260905034025 60 127 0.0 0.0 0.00 0.00 0.00 77 1016.8
20260905033524 60 103 0.0 0.0 0.00 0.00 0.00 77 1016.8
20260905033024 60 168 0.0 0.0 0.00 0.00 0.00 77 1016.8
20260905032524 60 168 0.0 0.0 0.00 0.00 0.00 77 1016.8
20260905032025 61 114 0.0 0.0 0.00 0.00 0.00 77 1016.9
20260905031534 61 99 0.0 0.0 0.00 0.00 0.00 77 1016.8
20260905031024 61 99 0.0 0.0 0.00 0.00 0.00 77 1016.8
20260905030523 60 100 0.0 0.0 0.00 0.00 0.00 77 1016.7
20260905030023 60 115 0.0 0.0 0.00 0.00 0.00 78 1016.7
20260905025522 60 122 0.0 0.0 0.00 0.00 0.00 78 1016.8
20260905025022 60 122 0.0 0.0 0.00 0.00 0.00 77 1016.7
20260905024521 60 225 0.0 0.0 0.00 0.00 0.00 78 1016.7
20260905024020 60 204 0.0 0.0 0.00 0.00 0.00 78 1016.8